Location: Falniów
(50.3639°N, 19.9642°E)
Time: 19:26:13
(UTC+00:00)

SL-08 R/B - Pass Details

Date: 24 April 2026
Orbit: 667 x 728 km, 98.5° (Epoch: 13 May)

Event Time Altitude Azimuth Distance (km) Brightness Sun altitude
Rises 19:51:00 0° 11° (N) 3,163 7.2 -16.8°
Reaches altitude 10° 19:53:20 10° 6° (N) 2,238 6.5 -17.0°
Maximum altitude 19:58:06 51° 292° (WNW) 915 4.2 -17.5°
Drops below altitude 10° 20:02:48 10° 217° (SW) 2,213 5.8 -18.0°
Sets 20:05:06 0° 212° (SSW) 3,124 6.5 -18.3°
